DW9882 Weather Reports


time (UTC)temp
C
wind
direction
speed
KPH
gust
KPH
rain 1hr
cm
rain 24hr
cm
rain mn
cm
humidity
%
barometer
mb
20201025134203 -9 350 3.2 16.1 0.00 0.03 0.00 87 1020.7
20201025133703 -9 21 4.8 11.3 0.00 0.03 0.00 87 1020.5
20201025133206 -9 40 4.8 16.1 0.00 0.03 0.00 87 1020.5
20201025132704 -9 31 4.8 8.0 0.00 0.03 0.00 87 1020.5
20201025132203 -9 11 1.6 11.3 0.00 0.03 0.00 87 1020.4
20201025131709 -8 24 3.2 8.0 0.00 0.03 0.00 87 1020.4
20201025131204 -8 16 4.8 14.5 0.00 0.03 0.00 87 1020.4
20201025130712 -8 345 3.2 12.9 0.00 0.03 0.00 87 1020.2
20201025130203 -8 12 3.2 11.3 0.00 0.03 0.00 87 1020.2
20201025125703 -8 25 3.2 9.7 0.00 0.03 0.00 87 1020.1
20201025125206 -8 6 1.6 16.1 0.00 0.03 0.00 88 1020.0
20201025124706 -8 353 4.8 16.1 0.00 0.03 0.00 88 1020.1
20201025124209 -8 14 3.2 12.9 0.00 0.03 0.00 88 1020.1
20201025123711 -8 19 3.2 9.7 0.00 0.03 0.00 88 1020.0
20201025123206 -8 32 1.6 9.7 0.00 0.03 0.00 88 1019.8
20201025122704 -8 21 3.2 16.1 0.00 0.03 0.00 88 1019.8
20201025122217 -8 34 0.0 4.8 0.00 0.03 0.00 88 1019.6
20201025121704 -8 14 1.6 11.3 0.00 0.03 0.00 88 1019.5
20201025121204 -8 21 3.2 12.9 0.00 0.03 0.00 88 1019.4
20201025120704 -8 38 3.2 12.9 0.00 0.03 0.00 88 1019.6
20201025120208 -8 42 1.6 8.0 0.00 0.03 0.00 88 1019.7
20201025115703 -8 1 4.8 12.9 0.00 0.03 0.00 88 1019.6
20201025115205 -8 1 3.2 8.0 0.00 0.03 0.00 88 1019.7
20201025114705 -8 9 8.0 19.3 0.00 0.03 0.00 88 1019.4
20201025114208 -7 14 9.7 19.3 0.00 0.03 0.00 88 1019.3
20201025113706 -7 352 4.8 14.5 0.00 0.03 0.00 88 1019.3
20201025113203 -7 10 3.2 9.7 0.00 0.03 0.00 88 1019.3
20201025112712 -7 350 6.4 14.5 0.00 0.03 0.00 88 1019.2
20201025112204 -7 358 1.6 8.0 0.00 0.03 0.00 88 1019.2
20201025111704 -7 25 4.8 12.9 0.00 0.03 0.00 88 1019.1
20201025111207 -7 352 4.8 19.3 0.00 0.03 0.00 88 1019.1
20201025110704 -7 63 1.6 8.0 0.00 0.03 0.00 88 1019.0
20201025110204 -7 51 4.8 12.9 0.00 0.03 0.00 88 1018.9
20201025105705 -7 47 3.2 9.7 0.00 0.03 0.00 88 1018.9
20201025105204 -7 20 1.6 12.9 0.00 0.03 0.00 88 1019.0
20201025104704 -7 9 1.6 8.0 0.00 0.03 0.00 88 1018.9
20201025104203 -7 20 8.0 19.3 0.00 0.03 0.00 87 1018.8
20201025103705 -7 28 4.8 14.5 0.00 0.03 0.00 87 1018.8
20201025103203 -7 45 3.2 14.5 0.00 0.03 0.00 88 1018.8
20201025102706 -7 49 1.6 8.0 0.00 0.03 0.00 87 1018.6
20201025102207 -6 61 1.6 12.9 0.00 0.03 0.00 87 1018.6
20201025101706 -6 37 3.2 9.7 0.00 0.03 0.00 87 1018.5
20201025101204 -6 37 4.8 12.9 0.00 0.03 0.00 87 1018.6
20201025100704 -6 59 1.6 9.7 0.00 0.03 0.00 87 1018.6
20201025100204 -6 51 1.6 9.7 0.00 0.03 0.00 86 1018.5
20201025095704 -6 24 4.8 14.5 0.00 0.03 0.00 86 1018.5
20201025095205 -6 8 1.6 4.8 0.00 0.03 0.00 86 1018.5
20201025094708 -6 19 4.8 12.9 0.00 0.03 0.00 86 1018.5
20201025094205 -6 0 4.8 12.9 0.00 0.03 0.00 85 1018.3
20201025093703 -6 14 4.8 4.8 0.00 0.03 0.00 85 1018.3
20201025093203 -6 6 3.2 11.3 0.00 0.03 0.00 85 1018.4
20201025092703 -6 24 1.6 4.8 0.00 0.03 0.00 84 1018.3
20201025092204 -6 29 3.2 14.5 0.00 0.03 0.00 83 1018.3
20201025091704 -5 35 3.2 12.9 0.00 0.03 0.00 83 1018.4
20201025091206 -5 354 3.2 16.1 0.00 0.03 0.00 82 1018.5
20201025090718 -5 23 6.4 14.5 0.00 0.03 0.00 82 1018.3
20201025090213 -5 10 3.2 12.9 0.00 0.03 0.00 81 1018.5
20201025085711 -5 53 1.6 12.9 0.00 0.03 0.00 80 1018.3
20201025085204 -5 351 4.8 14.5 0.00 0.03 0.00 79 1018.3
20201025084704 -5 0 8.0 12.9 0.00 0.03 0.00 78 1018.3
20201025084208 -5 355 4.8 14.5 0.00 0.03 0.00 77 1018.3
20201025083706 -4 0 4.8 16.1 0.00 0.03 0.00 76 1018.2
20201025083208 -4 358 4.8 16.1 0.00 0.03 0.00 75 1018.1
20201025082714 -4 5 4.8 12.9 0.00 0.03 0.00 74 1018.0
20201025082204 -4 352 4.8 9.7 0.00 0.03 0.00 74 1017.9
20201025081704 -3 22 4.8 19.3 0.00 0.03 0.00 73 1017.9
20201025081204 -3 47 6.4 16.1 0.00 0.03 0.00 73 1017.9
20201025080705 -3 31 6.4 14.5 0.00 0.03 0.00 72 1017.9
20201025080205 -3 33 8.0 14.5 0.00 0.03 0.00 72 1017.9
20201025075703 -3 52 4.8 12.9 0.00 0.03 0.00 72 1017.7
20201025075204 -3 30 6.4 12.9 0.00 0.03 0.00 71 1017.7
20201025074706 -2 47 4.8 11.3 0.00 0.03 0.00 71 1017.7
20201025074204 -2 33 3.2 11.3 0.00 0.03 0.00 72 1017.8
20201025073709 -2 33 4.8 12.9 0.00 0.03 0.00 72 1017.8
20201025073207 -2 4 4.8 12.9 0.00 0.03 0.00 72 1017.6
20201025072703 -2 32 4.8 12.9 0.00 0.03 0.00 72 1017.6
20201025072208 -2 34 3.2 8.0 0.00 0.03 0.00 73 1017.5
20201025071707 -2 26 0.0 11.3 0.00 0.03 0.00 73 1017.5
20201025071206 -2 16 4.8 11.3 0.00 0.03 0.00 74 1017.5
20201025070704 -2 33 4.8 11.3 0.00 0.03 0.00 74 1017.4
20201025070205 -2 23 4.8 8.0 0.00 0.03 0.00 74 1017.4
20201025065701 -1 29 4.8 12.9 0.00 0.03 0.00 74 1017.2
20201025065203 -1 32 8.0 19.3 0.00 0.03 0.00 74 1017.1
20201025064702 -1 44 3.2 12.9 0.00 0.03 0.00 75 1017.0
20201025064201 -1 38 8.0 16.1 0.00 0.03 0.00 75 1016.9
20201025063701 -1 38 4.8 9.7 0.00 0.03 0.00 75 1017.0
20201025063200 -1 25 3.2 9.7 0.00 0.03 0.00 75 1017.1
20201025062701 -1 33 3.2 12.9 0.00 0.03 0.00 75 1017.2
20201025062201 0 25 4.8 9.7 0.00 0.03 0.00 74 1017.0
20201025061704 0 45 4.8 16.1 0.00 0.03 0.00 74 1016.9
20201025061201 0 58 6.4 14.5 0.00 0.03 0.00 74 1016.9
20201025060701 0 39 8.0 14.5 0.00 0.03 0.00 74 1016.9
20201025060200 0 15 6.4 16.1 0.00 0.03 0.00 74 1016.8
20201025055703 0 22 6.4 14.5 0.00 0.03 0.03 74 1016.7
20201025055201 0 357 8.0 12.9 0.00 0.03 0.03 73 1016.7
20201025054701 0 16 3.2 12.9 0.00 0.03 0.03 72 1016.8
20201025054202 0 13 6.4 12.9 0.00 0.03 0.03 72 1016.7
20201025053701 0 0 8.0 14.5 0.00 0.03 0.03 71 1016.7
20201025053201 0 4 4.8 16.1 0.00 0.03 0.03 71 1016.8
20201025052701 0 11 4.8 19.3 0.00 0.03 0.03 71 1016.8
20201025052206 0 10 3.2 12.9 0.00 0.03 0.03 71 1016.8
20201025051701 0 12 4.8 11.3 0.00 0.03 0.03 71 1016.8
20201025051203 0 8 3.2 16.1 0.00 0.03 0.03 71 1016.7
20201025050705 0 18 3.2 16.1 0.00 0.03 0.03 70 1016.7
20201025050201 0 22 6.4 16.1 0.00 0.03 0.03 70 1016.7
20201025045712 0 49 1.6 12.9 0.00 0.03 0.03 70 1016.5
20201025045201 1 37 4.8 11.3 0.00 0.03 0.03 70 1016.5
20201025044703 1 17 8.0 14.5 0.00 0.03 0.03 69 1016.4
20201025044201 1 0 6.4 16.1 0.00 0.03 0.03 69 1016.4
20201025043704 1 0 6.4 19.3 0.00 0.03 0.03 69 1016.4
20201025043204 1 16 4.8 16.1 0.00 0.03 0.03 68 1016.4
20201025042701 1 32 8.0 22.5 0.00 0.03 0.03 68 1016.3
20201025042201 1 37 8.0 14.5 0.00 0.03 0.03 68 1016.2
20201025041702 1 3 6.4 16.1 0.00 0.03 0.03 68 1015.9
20201025041202 1 345 3.2 16.1 0.00 0.03 0.03 67 1015.9
20201025040703 1 5 4.8 16.1 0.00 0.03 0.03 67 1015.6
20201025040203 2 2 9.7 19.3 0.00 0.03 0.03 66 1015.7
20201025035700 2 353 3.2 19.3 0.00 0.03 0.03 65 1015.5
20201025035202 2 0 4.8 16.1 0.00 0.03 0.03 65 1015.3
20201025034706 2 350 3.2 20.9 0.00 0.03 0.03 64 1015.3
20201025034202 2 8 3.2 20.9 0.00 0.03 0.03 64 1015.2
20201025033701 2 0 6.4 24.1 0.00 0.03 0.03 63 1015.0
20201025033211 2 352 4.8 19.3 0.00 0.03 0.03 63 1015.1
20201025032701 2 9 4.8 19.3 0.00 0.03 0.03 63 1014.8
20201025032201 2 21 4.8 22.5 0.00 0.03 0.03 63 1014.6
20201025031701 2 358 4.8 14.5 0.00 0.03 0.03 63 1014.5
20201025031204 2 4 4.8 14.5 0.00 0.03 0.03 62 1014.4
20201025030703 3 1 1.6 9.7 0.00 0.03 0.03 62 1014.2
20201025030210 3 9 1.6 8.0 0.00 0.03 0.03 61 1014.0
20201025025703 3 331 4.8 14.5 0.00 0.03 0.03 61 1014.1
20201025025201 3 312 1.6 16.1 0.00 0.03 0.03 60 1014.1
20201025024706 3 352 1.6 4.8 0.00 0.03 0.03 60 1014.0
20201025024202 3 336 1.6 14.5 0.00 0.03 0.03 60 1013.9
20201025023703 3 344 3.2 11.3 0.00 0.03 0.03 60 1013.6
20201025023202 3 19 1.6 8.0 0.00 0.03 0.03 59 1013.5
20201025022710 3 0 1.6 4.8 0.00 0.03 0.03 59 1013.6
20201025022202 3 13 0.0 4.8 0.00 0.03 0.03 59 1013.5
20201025021701 3 355 1.6 4.8 0.00 0.03 0.03 60 1013.3
20201025021201 3 342 0.0 4.8 0.00 0.03 0.03 60 1013.4
20201025020702 3 324 0.0 4.8 0.00 0.03 0.03 59 1013.3
20201025020202 3 324 0.0 3.2 0.00 0.03 0.03 58 1013.1
20201025015705 4 323 0.0 0.0 0.00 0.03 0.03 57 1013.0
20201025015201 4 323 0.0 0.0 0.00 0.03 0.03 57 1012.7
20201025014703 4 254 0.0 0.0 0.00 0.03 0.03 56 1012.7
20201025014208 4 254 0.0 1.6 0.00 0.03 0.03 56 1012.5
20201025013701 5 250 0.0 0.0 0.00 0.03 0.03 56 1012.4
20201025013201 5 250 0.0 0.0 0.00 0.03 0.03 55 1012.5
20201025012704 5 250 1.6 3.2 0.00 0.03 0.03 54 1012.4
20201025012202 5 298 0.0 0.0 0.00 0.03 0.03 53 1012.1
20201025011701 5 298 0.0 0.0 0.00 0.03 0.03 53 1012.2
20201025011202 5 298 0.0 0.0 0.00 0.03 0.03 53 1012.3
20201025010704 5 298 0.0 0.0 0.00 0.03 0.03 52 1012.2
20201025010210 5 298 0.0 3.2 0.00 0.03 0.03 53 1012.3
20201025005704 6 40 0.0 1.6 0.00 0.03 0.03 51 1011.8
20201025005202 6 40 0.0 3.2 0.00 0.03 0.03 51 1012.0
20201025004701 6 45 0.0 0.0 0.00 0.03 0.03 51 1011.8
20201025004202 6 45 0.0 3.2 0.00 0.03 0.03 50 1011.7
20201025003707 6 5 0.0 3.2 0.00 0.03 0.03 50 1011.5
20201025003204 6 9 3.2 4.8 0.00 0.03 0.03 49 1011.4
20201025002700 6 7 0.0 3.2 0.00 0.03 0.03 49 1011.5
20201025002204 7 22 1.6 4.8 0.00 0.03 0.03 48 1011.4
20201025001701 7 46 3.2 4.8 0.00 0.03 0.03 47 1011.1
20201025001202 7 1 3.2 11.3 0.00 0.03 0.03 46 1011.3
20201025000702 7 13 3.2 9.7 0.00 0.03 0.03 46 1011.2
20201025000206 7 22 4.8 14.5 0.00 0.03 0.03 45 1011.1
20201024235704 8 0 3.2 8.0 0.00 0.03 0.03 45 1010.8
20201024235201 8 0 3.2 8.0 0.00 0.03 0.03 44 1010.9
20201024234703 8 0 4.8 14.5 0.00 0.03 0.03 43 1010.8
20201024234201 8 35 3.2 8.0 0.00 0.03 0.03 43 1010.6
20201024233701 9 56 3.2 4.8 0.00 0.03 0.03 42 1010.4
20201024233201 9 15 1.6 11.3 0.00 0.03 0.03 42 1010.6
20201024232702 9 19 3.2 8.0 0.00 0.03 0.03 42 1010.6
20201024232201 9 32 3.2 9.7 0.00 0.03 0.03 41 1010.6
20201024231702 10 358 6.4 14.5 0.00 0.03 0.03 41 1010.6
20201024231210 10 50 1.6 8.0 0.00 0.03 0.03 41 1010.5
20201024230701 10 30 3.2 8.0 0.00 0.03 0.03 40 1010.5
20201024230209 10 59 3.2 4.8 0.00 0.03 0.03 40 1010.3
20201024225703 10 25 1.6 4.8 0.00 0.03 0.03 40 1010.3
20201024225201 10 55 1.6 4.8 0.00 0.03 0.03 40 1010.2
20201024224705 10 91 0.0 4.8 0.00 0.03 0.03 40 1010.1
20201024224204 10 107 0.0 3.2 0.00 0.03 0.03 39 1010.1
20201024223703 10 17 0.0 4.8 0.00 0.03 0.03 39 1010.1
20201024223203 11 82 0.0 3.2 0.00 0.03 0.03 39 1010.0
20201024222707 11 62 1.6 4.8 0.00 0.03 0.03 38 1010.1
20201024222204 11 50 3.2 8.0 0.00 0.03 0.03 38 1009.9
20201024221704 11 66 3.2 8.0 0.00 0.03 0.03 38 1010.0
20201024221200 11 14 1.6 8.0 0.00 0.03 0.03 38 1009.9
20201024220705 11 27 3.2 4.8 0.00 0.03 0.03 38 1009.8
20201024220202 11 48 3.2 9.7 0.00 0.03 0.03 37 1009.7
20201024215702 11 49 4.8 9.7 0.00 0.03 0.03 36 1009.6
20201024215201 12 42 1.6 4.8 0.00 0.03 0.03 36 1009.7
20201024214705 12 82 3.2 4.8 0.00 0.03 0.03 36 1009.5
20201024214203 12 67 3.2 8.0 0.00 0.03 0.03 36 1009.6
20201024213702 12 116 1.6 12.9 0.00 0.03 0.03 38 1009.6
20201024213202 12 43 3.2 12.9 0.00 0.03 0.03 37 1009.5
20201024212701 12 72 4.8 8.0 0.00 0.03 0.03 37 1009.4
20201024212205 12 92 1.6 4.8 0.00 0.03 0.03 38 1009.4
20201024211708 12 66 4.8 9.7 0.00 0.03 0.03 38 1009.2
20201024211204 12 106 1.6 8.0 0.00 0.03 0.03 40 1009.3
20201024210708 12 38 6.4 9.7 0.00 0.03 0.03 38 1009.2
20201024210202 12 30 3.2 9.7 0.00 0.03 0.03 38 1009.1
20201024205702 12 66 1.6 4.8 0.00 0.03 0.03 40 1009.1
20201024205202 12 79 3.2 9.7 0.00 0.03 0.03 39 1009.2
20201024204702 12 50 3.2 8.0 0.00 0.03 0.03 40 1009.3
20201024204204 12 56 3.2 11.3 0.00 0.03 0.03 40 1009.2
20201024203703 12 25 6.4 14.5 0.00 0.03 0.03 40 1009.0
20201024203204 12 57 3.2 9.7 0.00 0.03 0.03 41 1008.8
20201024202703 12 54 3.2 11.3 0.00 0.03 0.03 40 1009.0
20201024202202 12 51 4.8 11.3 0.00 0.03 0.03 40 1008.8
20201024201702 12 32 1.6 4.8 0.00 0.03 0.03 40 1008.8
20201024201203 12 119 1.6 8.0 0.00 0.03 0.03 42 1008.8
20201024200702 12 77 1.6 4.8 0.00 0.03 0.03 42 1008.8
20201024200202 12 49 8.0 14.5 0.00 0.03 0.03 41 1008.8
20201024195701 13 76 4.8 9.7 0.00 0.03 0.03 41 1008.7
20201024195205 12 115 3.2 4.8 0.00 0.03 0.03 42 1008.8
20201024194702 12 76 1.6 4.8 0.00 0.03 0.03 43 1008.9
20201024194206 12 48 0.0 3.2 0.00 0.03 0.03 45 1008.9
20201024193702 12 32 1.6 4.8 0.00 0.03 0.03 45 1008.9
20201024193202 11 74 3.2 4.8 0.00 0.03 0.03 45 1008.9
20201024192709 11 85 3.2 8.0 0.00 0.03 0.03 46 1009.1
20201024192201 11 44 3.2 4.8 0.00 0.03 0.03 48 1009.2
20201024191701 11 92 3.2 8.0 0.00 0.03 0.03 48 1009.2
20201024191202 10 100 3.2 4.8 0.00 0.03 0.03 48 1009.3
20201024190706 10 83 3.2 9.7 0.00 0.03 0.03 48 1009.3
20201024190203 10 70 4.8 12.9 0.00 0.03 0.03 49 1009.5
20201024185703 10 61 3.2 8.0 0.00 0.03 0.03 50 1009.6
20201024185204 10 43 1.6 9.7 0.00 0.03 0.03 50 1009.7
20201024184703 10 57 3.2 11.3 0.00 0.03 0.03 50 1009.6
20201024184202 10 50 3.2 11.3 0.00 0.03 0.03 50 1009.7
20201024183703 10 45 1.6 8.0 0.00 0.03 0.03 51 1009.6
20201024183203 10 60 3.2 11.3 0.00 0.05 0.03 50 1009.6
20201024182706 10 25 1.6 8.0 0.00 0.05 0.03 50 1009.5
20201024182202 10 59 4.8 12.9 0.00 0.05 0.03 50 1009.5
20201024181701 10 61 4.8 8.0 0.00 0.05 0.03 50 1009.7
20201024181201 9 78 3.2 8.0 0.00 0.05 0.03 51 1009.6
20201024180701 9 38 1.6 4.8 0.00 0.05 0.03 52 1009.8
20201024180202 8 71 3.2 9.7 0.00 0.05 0.03 52 1010.0
20201024175704 8 36 4.8 8.0 0.00 0.05 0.03 54 1009.9
20201024175202 8 55 3.2 8.0 0.00 0.05 0.03 55 1010.0
20201024174710 8 355 4.8 12.9 0.00 0.05 0.03 56 1010.1
20201024174201 8 20 3.2 4.8 0.00 0.05 0.03 57 1010.0
20201024173702 8 42 3.2 8.0 0.00 0.05 0.03 58 1010.1
20201024173202 7 50 1.6 4.8 0.00 0.05 0.03 60 1010.2
20201024172703 7 37 3.2 9.7 0.00 0.05 0.03 61 1010.3
20201024172202 7 48 4.8 8.0 0.00 0.05 0.03 61 1010.3
20201024171704 7 29 1.6 3.2 0.00 0.05 0.03 63 1010.3
20201024171202 6 29 3.2 4.8 0.00 0.05 0.03 64 1010.4
20201024170705 6 48 3.2 8.0 0.00 0.05 0.03 65 1010.5
20201024170202 6 39 3.2 8.0 0.00 0.05 0.03 68 1010.5
20201024165701 5 66 3.2 4.8 0.00 0.05 0.03 71 1010.6
20201024165201 5 0 1.6 8.0 0.00 0.05 0.03 74 1010.5
20201024164701 4 159 1.6 4.8 0.00 0.05 0.03 77 1010.3
20201024164204 3 24 1.6 3.2 0.00 0.05 0.03 78 1010.6
20201024163702 3 20 0.0 4.8 0.00 0.05 0.03 81 1010.5
20201024163201 3 53 1.6 3.2 0.00 0.05 0.03 83 1010.6
20201024162701 2 143 0.0 4.8 0.00 0.05 0.03 84 1010.6
20201024162201 2 203 0.0 0.0 0.00 0.05 0.03 84 1010.6
20201024161705 1 203 0.0 3.2 0.03 0.05 0.03 85 1010.8
20201024161201 1 191 0.0 1.6 0.03 0.05 0.03 85 1010.8
20201024160701 1 57 0.0 4.8 0.03 0.05 0.03 87 1011.0
20201024160203 1 357 1.6 4.8 0.03 0.05 0.03 88 1010.9
20201024155702 0 52 1.6 4.8 0.03 0.05 0.03 89 1010.7
20201024155205 0 26 4.8 9.7 0.03 0.05 0.03 90 1010.8
20201024154701 0 2 3.2 4.8 0.03 0.05 0.03 91 1010.8
20201024154202 0 69 0.0 1.6 0.03 0.05 0.03 91 1010.7
20201024153702 0 69 0.0 0.0 0.03 0.05 0.03 91 1010.7
20201024153201 0 71 0.0 0.0 0.03 0.05 0.03 92 1010.5
20201024152702 0 56 0.0 0.0 0.03 0.05 0.03 92 1010.9
20201024152201 -1 87 0.0 0.0 0.03 0.05 0.03 92 1010.6
20201024151701 -1 186 0.0 0.0 0.00 0.03 0.00 93 1010.8
20201024151320 -1 202 0.0 0.0 0.00 0.03 0.00 93 1010.6
20201024150706 -1 202 0.0 0.0 0.00 0.03 0.00 92 1010.6
20201024150204 -1 202 0.0 0.0 0.00 0.03 0.00 93 1010.4
20201024145701 -1 202 0.0 0.0 0.00 0.03 0.00 92 1010.4
20201024145201 -2 148 0.0 0.0 0.00 0.03 0.00 93 1010.6
20201024144711 -2 140 0.0 0.0 0.00 0.03 0.00 93 1010.5
20201024144206 -2 140 0.0 0.0 0.00 0.03 0.00 92 1010.5
20201024143705 -2 149 0.0 0.0 0.00 0.03 0.00 92 1010.6
20201024143202 -2 160 0.0 0.0 0.00 0.03 0.00 92 1010.8
20201024142702 -2 160 0.0 0.0 0.00 0.03 0.00 92 1010.7
20201024142204 -3 37 0.0 0.0 0.00 0.03 0.00 92 1010.7
20201024141702 -3 167 0.0 0.0 0.00 0.03 0.00 92 1010.6
20201024141202 -3 169 0.0 0.0 0.00 0.03 0.00 92 1010.7
20201024140701 -3 192 0.0 0.0 0.00 0.03 0.00 92 1010.6
20201024140203 -3 208 0.0 0.0 0.00 0.03 0.00 92 1010.6
20201024135706 -3 213 0.0 0.0 0.00 0.03 0.00 92 1010.9
20201024135201 -3 207 0.0 0.0 0.00 0.03 0.00 92 1010.7
20201024134703 -3 189 0.0 0.0 0.00 0.03 0.00 92 1010.6